When you browse on this site, cookies collect data to enhance your experience and personalize the content and advertising you see.
Visit our Privacy Policy to learn more. By continuing to use the site, you agree to this use of cookies and data.
  • In Hungary
  • List of Countries
  • For 7 days
  • Water Temperature
  • Satellite Maps
  • Weather Map
  • News
  • Weather Widgets
  • user-avatar
    Login

    Hourly Weather Shenihovo

    Today, 24 May, Friday

    Time Temperature Precipitation Wind Pressure Humidity
    00:00 +11°C° 0 mm 3 mps 752 mmHg 86%
    01:00 +10°C° 0 mm 3 mps 752 mmHg 87%
    02:00 +10°C° 0 mm 2 mps 752 mmHg 89%
    03:00 +9°C° 0 mm 2 mps 752 mmHg 89%
    04:00 +9°C° 0 mm 2 mps 752 mmHg 89%
    05:00 +9°C° 0 mm 2 mps 752 mmHg 89%
    06:00 +12°C° 0 mm 2 mps 752 mmHg 85%
    07:00 +13°C° 0 mm 2 mps 752 mmHg 81%
    08:00 +15°C° 0 mm 2 mps 752 mmHg 76%
    09:00 +17°C° 0 mm 2 mps 752 mmHg 72%
    10:00 +19°C° 0 mm 2 mps 752 mmHg 68%
    11:00 +20°C° 0 mm 2 mps 752 mmHg 64%
    12:00 +21°C° 0.1 mm 2 mps 752 mmHg 64%
    13:00 +21°C° 0.1 mm 2 mps 752 mmHg 64%
    14:00 +23°C° 0.1 mm 2 mps 751 mmHg 64%
    15:00 +21°C° 1.5 mm 2 mps 751 mmHg 70%
    16:00 +21°C° 1.5 mm 2 mps 751 mmHg 76%
    17:00 +20°C° 1.5 mm 2 mps 750 mmHg 82%
    18:00 +19°C° 2.3 mm 2 mps 750 mmHg 85%
    19:00 +18°C° 2.3 mm 2 mps 750 mmHg 88%
    20:00 +17°C° 2.3 mm 2 mps 750 mmHg 91%
    21:00 +16°C° 0.2 mm 2 mps 750 mmHg 93%
    22:00 +15°C° 0.2 mm 2 mps 750 mmHg 94%
    23:00 +14°C° 0.2 mm 2 mps 750 mmHg 95%

    Tomorrow, 25 May, Saturday

    Time Temperature Precipitation Wind Pressure Humidity
    00:00 +13°C° 0 mm 2 mps 750 mmHg 95%
    01:00 +12°C° 0 mm 2 mps 750 mmHg 95%
    02:00 +11°C° 0 mm 1 mps 750 mmHg 95%
    03:00 +12°C° 0 mm 1 mps 750 mmHg 95%
    04:00 +12°C° 0 mm 1 mps 749 mmHg 96%
    05:00 +12°C° 0 mm 1 mps 749 mmHg 96%
    06:00 +13°C° 0 mm 1 mps 749 mmHg 92%
    07:00 +15°C° 0 mm 1 mps 749 mmHg 88%
    08:00 +16°C° 0 mm 1 mps 749 mmHg 83%
    09:00 +19°C° 0 mm 1 mps 748 mmHg 74%
    10:00 +19°C° 0 mm 2 mps 748 mmHg 64%
    11:00 +20°C° 0 mm 2 mps 748 mmHg 54%
    12:00 +21°C° 0 mm 3 mps 747 mmHg 52%
    13:00 +21°C° 0 mm 4 mps 747 mmHg 51%
    14:00 +22°C° 0 mm 4 mps 746 mmHg 49%
    15:00 +20°C° 0.8 mm 4 mps 746 mmHg 61%
    16:00 +18°C° 0.8 mm 4 mps 746 mmHg 73%
    17:00 +15°C° 0.8 mm 4 mps 746 mmHg 85%
    18:00 +14°C° 0.1 mm 3 mps 746 mmHg 85%
    19:00 +13°C° 0.1 mm 3 mps 746 mmHg 86%
    20:00 +12°C° 0.1 mm 3 mps 746 mmHg 86%
    21:00 +11°C° 0 mm 3 mps 746 mmHg 87%
    22:00 +10°C° 0 mm 3 mps 747 mmHg 88%
    23:00 +8°C° 0 mm 3 mps 747 mmHg 89%

    Day after tomorrow, 26 May, Sunday

    Time Temperature Precipitation Wind Pressure Humidity
    00:00 +8°C° 0 mm 3 mps 747 mmHg 90%
    01:00 +8°C° 0 mm 3 mps 747 mmHg 91%
    02:00 +8°C° 0 mm 3 mps 747 mmHg 92%
    03:00 +8°C° 0 mm 3 mps 747 mmHg 90%
    04:00 +9°C° 0 mm 3 mps 747 mmHg 88%
    05:00 +9°C° 0 mm 3 mps 748 mmHg 87%
    06:00 +10°C° 0 mm 3 mps 747 mmHg 82%
    07:00 +11°C° 0 mm 3 mps 747 mmHg 78%
    08:00 +12°C° 0 mm 3 mps 747 mmHg 73%
    09:00 +14°C° 0 mm 3 mps 747 mmHg 69%
    10:00 +15°C° 0 mm 4 mps 747 mmHg 66%
    11:00 +17°C° 0 mm 5 mps 747 mmHg 62%
    12:00 +17°C° 0.1 mm 5 mps 746 mmHg 59%
    13:00 +19°C° 0.1 mm 6 mps 746 mmHg 56%
    14:00 +19°C° 0.1 mm 6 mps 746 mmHg 53%
    15:00 +17°C° 0 mm 6 mps 746 mmHg 56%
    16:00 +16°C° 0 mm 6 mps 746 mmHg 59%
    17:00 +15°C° 0 mm 5 mps 745 mmHg 62%
    18:00 +14°C° 0.4 mm 5 mps 745 mmHg 72%
    19:00 +12°C° 0.4 mm 4 mps 745 mmHg 82%
    20:00 +10°C° 0.4 mm 4 mps 745 mmHg 92%
    21:00 +10°C° 0.3 mm 4 mps 745 mmHg 92%
    22:00 +8°C° 0.3 mm 4 mps 745 mmHg 92%
    23:00 +8°C° 0.3 mm 5 mps 746 mmHg 93%

    27 May, Monday

    Time Temperature Precipitation Wind Pressure Humidity
    00:00 +7°C° 0 mm 4 mps 746 mmHg 93%
    01:00 +6°C° 0 mm 4 mps 746 mmHg 93%
    02:00 +5°C° 0 mm 4 mps 746 mmHg 93%
    03:00 +5°C° 0 mm 4 mps 746 mmHg 93%
    04:00 +5°C° 0 mm 5 mps 746 mmHg 93%
    05:00 +5°C° 0 mm 5 mps 746 mmHg 93%
    06:00 +7°C° 0 mm 5 mps 747 mmHg 87%
    07:00 +8°C° 0 mm 6 mps 747 mmHg 81%
    08:00 +9°C° 0 mm 6 mps 747 mmHg 74%
    09:00 +10°C° 0 mm 6 mps 748 mmHg 72%
    10:00 +11°C° 0 mm 6 mps 748 mmHg 69%
    11:00 +11°C° 0 mm 6 mps 748 mmHg 67%
    12:00 +13°C° 0 mm 5 mps 749 mmHg 64%
    13:00 +14°C° 0 mm 5 mps 749 mmHg 60%
    14:00 +16°C° 0 mm 5 mps 749 mmHg 57%
    15:00 +15°C° 0.1 mm 4 mps 749 mmHg 66%
    16:00 +14°C° 0.1 mm 3 mps 749 mmHg 75%
    17:00 +13°C° 0.1 mm 3 mps 748 mmHg 85%
    18:00 +12°C° 0.5 mm 3 mps 748 mmHg 89%
    19:00 +12°C° 0.5 mm 3 mps 748 mmHg 93%
    20:00 +13°C° 0.5 mm 2 mps 748 mmHg 97%
    21:00 +13°C° 0.2 mm 2 mps 748 mmHg 97%
    22:00 +13°C° 0.2 mm 2 mps 748 mmHg 98%
    23:00 +13°C° 0.2 mm 2 mps 748 mmHg 98%

    28 May, Tuesday

    Time Temperature Precipitation Wind Pressure Humidity
    00:00 +13°C° 0.1 mm 2 mps 748 mmHg 98%
    01:00 +13°C° 0.1 mm 2 mps 748 mmHg 98%
    02:00 +13°C° 0.1 mm 2 mps 748 mmHg 98%
    03:00 +13°C° 0 mm 2 mps 749 mmHg 98%
    04:00 +13°C° 0 mm 2 mps 749 mmHg 97%
    05:00 +13°C° 0 mm 2 mps 749 mmHg 97%
    06:00 +13°C° 0 mm 3 mps 750 mmHg 92%
    07:00 +14°C° 0 mm 3 mps 750 mmHg 87%
    08:00 +14°C° 0 mm 3 mps 750 mmHg 82%
    09:00 +17°C° 0 mm 4 mps 751 mmHg 75%
    10:00 +18°C° 0 mm 4 mps 751 mmHg 67%
    11:00 +19°C° 0 mm 4 mps 751 mmHg 59%
    12:00 +20°C° 0 mm 3 mps 751 mmHg 56%
    13:00 +20°C° 0 mm 3 mps 751 mmHg 53%
    14:00 +21°C° 0 mm 3 mps 751 mmHg 50%
    15:00 +21°C° 0 mm 2 mps 751 mmHg 53%
    16:00 +22°C° 0 mm 1 mps 751 mmHg 57%
    17:00 +21°C° 0 mm 1 mps 751 mmHg 60%
    18:00 +20°C° 0 mm 1 mps 751 mmHg 65%
    19:00 +16°C° 0 mm 0 mps 751 mmHg 71%
    20:00 +15°C° 0 mm 0 mps 751 mmHg 76%
    21:00 +14°C° 0.1 mm 0 mps 751 mmHg 79%
    22:00 +14°C° 0.1 mm 0 mps 751 mmHg 82%
    23:00 +13°C° 0.1 mm 0 mps 752 mmHg 85%

    29 May, Wednesday

    Time Temperature Precipitation Wind Pressure Humidity
    00:00 +14°C° 0.2 mm 1 mps 751 mmHg 88%
    01:00 +14°C° 0.2 mm 1 mps 751 mmHg 90%
    02:00 +14°C° 0.2 mm 1 mps 751 mmHg 93%
    03:00 +14°C° 0.1 mm 2 mps 751 mmHg 94%
    04:00 +14°C° 0.1 mm 2 mps 751 mmHg 94%
    05:00 +14°C° 0.1 mm 2 mps 751 mmHg 95%
    06:00 +14°C° 4.2 mm 2 mps 750 mmHg 96%
    07:00 +15°C° 4.2 mm 2 mps 750 mmHg 97%
    08:00 +15°C° 4.2 mm 2 mps 750 mmHg 98%
    09:00 +16°C° 1.8 mm 2 mps 749 mmHg 97%
    10:00 +17°C° 1.8 mm 3 mps 749 mmHg 96%
    11:00 +18°C° 1.8 mm 3 mps 749 mmHg 95%
    12:00 +19°C° 1.4 mm 3 mps 748 mmHg 94%
    13:00 +20°C° 1.4 mm 4 mps 748 mmHg 92%
    14:00 +21°C° 1.4 mm 4 mps 748 mmHg 91%
    15:00 +20°C° 0.4 mm 4 mps 748 mmHg 89%
    16:00 +20°C° 0.4 mm 4 mps 748 mmHg 87%
    17:00 +20°C° 0.4 mm 4 mps 748 mmHg 85%
    18:00 +18°C° 0 mm 4 mps 748 mmHg 87%
    19:00 +17°C° 0 mm 3 mps 748 mmHg 88%
    20:00 +14°C° 0 mm 3 mps 749 mmHg 90%
    21:00 +13°C° 0 mm 3 mps 749 mmHg 92%
    22:00 +13°C° 0 mm 3 mps 750 mmHg 95%
    23:00 +12°C° 0 mm 3 mps 750 mmHg 97%
    Show more